Location: Antoign�
(47.0844°N, 0.1131°W)
Time: 23:12:55
(UTC+00:00)

USA 307 - Pass Details

Date: 03 March 2021
Orbit: 567 x 577 km, 54.0° (Epoch: 13 April)

Event Time Altitude Azimuth Distance (km) Brightness Sun altitude
Rises 18:14:31 0° 267° (W) 2,784 9.5 -5.2°
Reaches altitude 10° 18:16:53 10° 276° (W) 1,885 7.3 -5.6°
Maximum altitude 18:20:55 39° 345° (NNW) 874 4.0 -6.2°
Drops below altitude 10° 18:24:57 10° 55° (NE) 1,881 5.0 -6.9°
Enters shadow 18:25:53 - 59° (ENE) 2,228 5.4 -7.1°
